User: anonymous
Location: Muenchen
(48.1800°N, 11.5800°E)
Time: 04:10:46
(UTC+02:00)
Language:

Iridium 73 - Orbit

View from above orbital plane
View from above orbital plane
View from above satellite
View from above satellite

Ground track
Ground track

The orbit data is extracted from the following two-line orbital elements,

1 25344U 98032C   14241.50602670  .00000330  00000-0  82992-4 0  8021
2 25344 086.4393 274.9636 0001949 123.6935 349.6119 14.48341602859482
Epoch (UTC): 29 August 2014 12:08:40
Eccentricity: 0.0001949
inclination: 86.4393°
perigee height: 729 km
apogee height: 732 km
right ascension of ascending node: 274.9636°
argument of perigee: 123.6935°
revolutions per day: 14.48341602
mean anomaly at epoch: 349.6119°
orbit number at epoch: 85948

The dashed part of the orbit path shows where the satellite is in the earth's shadow,  

DLR